Temp
36 35 36 35 34 34 35 36 39 41 43 44 45 48 56 59 61 64 62 66 66 64
35 34 33 33 34 34 35 37 38 39 40 41 42 44 49 49 51 52 57 62 64 57
34 34 33 34 31 35 36 34 35 36 37 37 38 39 42 44 43 43 43 45 46 51
33 32 33 31 31 32 33 33 34 35 35 33 35 35 37 40 40 39 39 42 42 40
31 30 29 29 30 30 31 31 32 34 33 33 32 32 33 34 35 35 36 38 40 38
29 29 28 28 30 31 31 30 31 31 31 30 30 31 31 32 32 32 32 32 33 33
28 30 30 29 29 30 30 30 28 29 30 29 29 29 29 29 29 29 30 31 32 32
31 30 32 31 31 31 32 30 29 28 28 29 28 29 29 30 28 27 28 29 31 32
31 31 30 32 31 31 32 32 31 30 29 26 28 28 29 29 28 28 28 29 31 33
31 30 30 31 31 31 30 31 31 31 30 29 28 30 29 28 30 29 29 28 30 31
31 30 30 30 29 29 30 29 29 29 30 30 29 28 29 29 28 26 27 28 29 29
30 29 29 27 27 29 29 28 27 28 27 28 28 27 26 29 28 26 23 26 28 27
29 28 25 26 26 28 28 27 27 25 25 26 26 27 26 26 26 21 22 22 23 24
29 26 27 26 27 25 25 25 23 23 23 23 24 25 26 24 21 19 19 19 19 21
MSLP
1021.33 1020.76 1019.87 1019.03 1017.91 1016.68 1015.49 1014.09 1012.89 1011.63 1010.29 1009.04 1007.78 1006.51 1004.69 1004.15 1003.95 1003.51 1003.40 1003.49 1003.82 1004.15
1021.98 1021.38 1020.41 1019.40 1018.25 1017.27 1015.87 1014.38 1012.97 1012.10 1010.92 1009.40 1008.06 1006.88 1005.58 1004.15 1004.00 1004.00 1003.51 1003.34 1003.64 1004.49
1022.47 1021.81 1020.89 1019.75 1018.84 1017.74 1016.45 1014.76 1013.81 1013.01 1011.97 1010.05 1008.93 1008.40 1007.43 1006.18 1005.68 1005.30 1005.45 1005.17 1004.81 1005.44
1022.65 1022.18 1021.43 1020.55 1019.82 1018.81 1017.40 1016.38 1015.29 1014.43 1012.83 1011.15 1011.05 1010.38 1009.80 1008.52 1007.85 1006.89 1007.19 1007.09 1006.40 1007.19
1023.46 1022.86 1022.21 1021.59 1021.01 1019.95 1018.85 1017.70 1016.64 1015.59 1013.60 1013.15 1013.22 1012.33 1011.86 1011.15 1010.65 1009.27 1009.14 1009.65 1008.69 1009.12
1024.20 1023.51 1023.30 1022.71 1021.76 1021.04 1019.79 1018.94 1017.57 1016.08 1015.07 1015.04 1014.77 1015.09 1013.35 1013.45 1012.70 1011.95 1011.74 1011.78 1011.50 1010.94
1024.99 1024.38 1023.93 1023.44 1022.52 1021.91 1020.91 1019.83 1018.63 1018.24 1017.54 1017.23 1017.57 1015.88 1016.23 1015.99 1015.03 1014.30 1013.59 1013.78 1014.51 1012.76
1025.49 1025.24 1024.67 1024.05 1023.39 1023.01 1022.18 1021.37 1020.86 1020.40 1019.76 1019.52 1019.20 1019.32 1018.50 1017.45 1017.00 1015.07 1017.07 1015.13 1014.79 1015.49
1026.08 1025.83 1025.50 1024.99 1024.48 1023.93 1023.46 1022.95 1022.43 1021.86 1021.58 1021.36 1021.63 1021.52 1020.58 1019.35 1017.89 1017.34 1016.91 1016.12 1018.36 1017.43
1026.61 1026.42 1026.21 1025.94 1025.43 1024.84 1024.68 1024.17 1023.64 1023.30 1023.15 1023.02 1022.70 1021.61 1020.32 1020.17 1019.73 1019.38 1019.19 1018.93 1019.76 1018.54
1027.17 1026.98 1026.89 1026.71 1026.53 1026.19 1025.95 1025.67 1025.27 1024.91 1024.30 1023.78 1023.46 1022.94 1022.57 1021.93 1022.37 1022.12 1021.29 1020.80 1020.23 1019.74
1027.91 1027.72 1027.65 1027.45 1027.42 1027.29 1027.25 1027.15 1027.02 1026.80 1026.49 1025.69 1025.28 1024.90 1024.28 1023.36 1023.16 1023.05 1023.08 1022.94 1022.54 1022.57
1028.75 1028.57 1028.67 1028.49 1028.35 1028.14 1027.96 1027.84 1028.09 1027.83 1027.55 1026.94 1026.27 1025.84 1025.12 1024.63 1024.48 1024.25 1024.00 1024.62 1024.53 1024.68
1029.26 1029.32 1029.29 1029.28 1029.19 1029.11 1028.94 1028.60 1028.33 1027.94 1027.83 1027.47 1026.97 1026.54 1026.18 1025.82 1025.66 1025.73 1025.74 1026.03 1026.01 1025.88
Wind_Speed
17 10 11 13 11 9 9 10 15 14 12 13 14 14 13 11 12 14 11 17 14 6
15 15 14 16 14 10 12 11 15 16 15 15 17 17 14 6 4 5 5 8 10 7
15 16 16 16 17 18 16 17 17 18 18 19 21 21 17 7 11 11 9 8 12 7
16 17 17 17 18 17 17 16 17 18 20 22 22 20 16 16 14 16 15 12 15 15
13 15 16 16 17 16 16 17 17 17 22 24 22 22 19 19 17 20 19 16 17 16
14 14 15 15 16 18 18 18 20 21 24 24 23 20 21 19 20 21 21 19 17 15
13 15 15 14 16 17 18 20 22 22 21 23 19 21 20 18 19 20 22 19 15 21
13 14 15 17 17 16 19 17 18 18 19 18 19 15 14 17 19 21 16 19 22 20
13 14 15 15 17 17 19 19 18 19 19 18 13 26 25 19 18 20 21 21 19 19
13 14 14 14 16 18 18 18 20 20 18 19 17 29 31 29 19 19 20 19 16 17
12 13 14 15 15 16 16 17 17 19 19 19 19 29 25 25 18 17 20 21 21 22
11 12 13 14 14 13 13 15 15 15 18 18 20 29 25 19 16 18 20 19 22 20
11 12 12 12 12 12 12 13 12 15 15 22 18 28 29 20 12 15 13 15 17 27
10 11 11 11 10 10 10 11 11 13 13 15 18 20 28 28 14 11 12 12 12 13
Wind_Direction
8 355 357 353 342 340 337 337 334 334 339 340 337 322 287 241 240 234 241 212 211 191
13 8 4 359 352 348 354 356 2 357 356 5 6 358 338 34 46 23 327 229 188 140
22 19 14 11 4 2 5 13 14 15 10 18 20 11 8 4 39 62 46 50 64 63
24 20 20 14 9 3 8 6 20 23 28 30 25 17 11 26 43 54 54 47 71 61
23 22 19 14 11 6 16 19 21 25 40 35 27 25 23 29 37 47 46 44 60 59
26 29 21 16 19 16 21 24 28 28 37 34 31 24 30 31 36 43 44 37 36 45
29 35 30 23 25 20 20 28 26 26 32 35 23 28 28 33 39 41 48 36 36 47
37 37 37 33 35 32 33 31 37 32 34 39 37 29 32 41 44 49 49 43 36 38
43 42 41 40 40 39 37 42 39 40 41 39 42 41 43 46 49 47 42 45 43 39
47 43 44 44 43 43 40 38 42 42 41 45 37 37 42 44 49 42 46 44 42 46
53 51 47 46 47 48 43 42 42 41 36 40 37 36 43 49 55 53 45 43 40 41
55 56 53 50 45 48 54 52 50 47 46 44 44 42 41 45 46 52 49 45 41 42
59 58 52 52 48 49 49 54 54 50 45 46 44 43 43 42 45 49 47 46 42 39
75 64 57 53 52 52 48 51 46 49 44 39 45 40 45 45 44 44 47 43 37 37